Weather History for Iron Mountain, MI

Change the Weather History Date:

Wednesday, August 28, 2013

  Actual Average Record
Temperature  
Mean Temperature 75 °F -  
Max Temperature 87 °F 76 °F 94 °F (1991)
Min Temperature 64 °F 52 °F 34 °F (1941)
Cooling Degree Days 10    
Growing Degree Days 25 (Base 50)    
Moisture  
Dew Point 66 °F    
Average Humidity 85    
Maximum Humidity 100    
Minimum Humidity 44    
Precipitation  
Precipitation 0.00 in - - ()
Sea Level Pressure  
Sea Level Pressure 29.98 in    
Wind  
Wind Speed 2 mph (North)    
Max Wind Speed 8 mph    
Max Gust Speed -    
Visibility 6 miles    
Events Fog    
Averages and records for this station are not official NWS values.
T = Trace of Precipitation, MM = Missing Value Source: NWS Daily Summary

Daily Weather History Graph

Daily Weather History Graph

Search for Another Location

Airport:

Trip Planner

Search our weather history database for the weather conditions in past years. The results will help you decide how hot, cold, wet, or windy it might be!

Date:

Astronomy

Aug. 28, 2013 Rise Set
Actual Time 6:08 AM CDT 7:37 PM CDT
Civil Twilight 5:37 AM CDT 8:08 PM CDT
Nautical Twilight 4:59 AM CDT 8:46 PM CDT
Astronomical Twilight 4:19 AM CDT 9:26 PM CDT
Moon 11:52 PM CDT (8/28) 2:23 PM CDT (8/28)
Length of Visible Light 14h 30m
Length of Day
13h 28m
Waning Gibbous, 47% of the Moon is Illuminated
Aug 28
Waning Gibbous
Sep 5
New
Sep 12
First Quarter
Sep 19
Full
Sep 26
Last Quarter

Hourly Weather History & Observations

Time (CDT) Temp. Heat Index Dew Point Humidity Pressure Visibility Wind Dir Wind Speed Gust Speed Precip Events Conditions
12:50 AM 69.8 °F - 69.8 °F 100% 29.92 in 0.2 mi Calm Calm - N/A Fog Fog
12:54 AM 70.0 °F - 69.1 °F 97% 29.91 in 0.2 mi Calm Calm - N/A Fog Fog
1:03 AM 69.8 °F - 69.8 °F 100% 29.92 in 0.2 mi Calm Calm - N/A Fog Fog
1:10 AM 69.8 °F - 69.8 °F 100% 29.92 in 0.5 mi Calm Calm - N/A Fog Fog
1:19 AM 69.8 °F - 69.8 °F 100% 29.92 in 2.0 mi Calm Calm - N/A   Overcast
1:26 AM 69.8 °F - 68.0 °F 94% 29.92 in 9.0 mi NW 3.5 mph - N/A   Overcast
1:45 AM 69.8 °F - 68.0 °F 94% 29.91 in 2.0 mi Calm Calm - N/A   Mostly Cloudy
1:49 AM 69.8 °F - 68.0 °F 94% 29.91 in 0.8 mi Calm Calm - N/A   Mostly Cloudy
1:54 AM 69.1 °F - 68.0 °F 96% 29.90 in 0.5 mi Calm Calm - N/A Fog Fog
2:11 AM 69.8 °F - 68.0 °F 94% 29.91 in 0.2 mi Calm Calm - N/A Fog Fog
2:54 AM 69.1 °F - 69.1 °F 100% 29.92 in 0.2 mi North 5.8 mph - N/A Fog Fog
3:06 AM 69.8 °F - 68.0 °F 94% 29.93 in 0.5 mi Calm Calm - N/A Fog Fog
3:17 AM 69.8 °F - 68.0 °F 94% 29.93 in 0.2 mi North 4.6 mph - N/A Fog Fog
3:33 AM 69.8 °F - 68.0 °F 94% 29.94 in 0.5 mi North 5.8 mph - N/A Fog Fog
3:54 AM 69.1 °F - 68.0 °F 96% 29.94 in 1.2 mi NNW 5.8 mph - N/A   Overcast
4:12 AM 68.0 °F - 66.2 °F 94% 29.96 in 2.5 mi NNW 6.9 mph - N/A   Overcast
4:26 AM 68.0 °F - 66.2 °F 94% 29.96 in 1.2 mi North 5.8 mph - N/A   Overcast
4:44 AM 68.0 °F - 66.2 °F 94% 29.97 in 2.0 mi NNW 6.9 mph - N/A   Overcast
4:51 AM 68.0 °F - 66.2 °F 94% 29.97 in 1.2 mi North 6.9 mph - N/A   Overcast
4:54 AM 66.9 °F - 66.9 °F 100% 29.96 in 1.2 mi North 6.9 mph - N/A   Overcast
5:34 AM 66.2 °F - 64.4 °F 94% 29.98 in 3.0 mi North 8.1 mph - N/A   Overcast
5:54 AM 64.9 °F - 64.0 °F 97% 29.98 in 10.0 mi North 8.1 mph - N/A   Overcast
6:18 AM 64.4 °F - 62.6 °F 94% 30.00 in 10.0 mi Calm Calm - N/A   Scattered Clouds
6:33 AM 64.4 °F - 62.6 °F 94% 30.00 in 10.0 mi North 4.6 mph - N/A   Mostly Cloudy
6:54 AM 64.9 °F - 64.0 °F 97% 30.00 in 8.0 mi NNW 4.6 mph - N/A   Overcast
7:54 AM 66.0 °F - 64.0 °F 93% 30.01 in 7.0 mi Calm Calm - N/A   Overcast
8:54 AM 66.9 °F - 64.0 °F 90% 30.02 in 9.0 mi WNW 4.6 mph - N/A   Overcast
9:30 AM 69.8 °F - 64.4 °F 83% 30.02 in 10.0 mi Calm Calm - N/A   Mostly Cloudy
9:38 AM 69.8 °F - 64.4 °F 83% 30.02 in 10.0 mi NW 3.5 mph - N/A   Partly Cloudy
9:54 AM 72.0 °F - 64.9 °F 78% 30.02 in 10.0 mi NNW 3.5 mph - N/A   Clear
10:54 AM 75.9 °F - 64.9 °F 69% 30.03 in 10.0 mi NNE 3.5 mph - N/A   Clear
11:54 AM 80.1 °F 81.9 °F 64.9 °F 60% 30.03 in 10.0 mi Variable 3.5 mph - N/A   Clear
12:54 PM 82.0 °F 82.4 °F 60.1 °F 47% 30.03 in 10.0 mi Calm Calm - N/A   Clear
1:54 PM 84.9 °F 85.0 °F 61.0 °F 44% 30.02 in 10.0 mi NNE 6.9 mph - N/A   Clear
2:54 PM 86.0 °F 86.3 °F 62.1 °F 44% 30.01 in 10.0 mi Calm Calm - N/A   Clear
3:54 PM 86.0 °F 86.8 °F 63.0 °F 46% 30.01 in 10.0 mi NE 4.6 mph - N/A   Clear
4:54 PM 86.0 °F 86.8 °F 63.0 °F 46% 30.01 in 10.0 mi ENE 4.6 mph - N/A   Clear
5:54 PM 84.0 °F 85.4 °F 64.0 °F 51% 30.02 in 10.0 mi SW 4.6 mph - N/A   Clear
6:54 PM 77.0 °F - 69.1 °F 76% 30.03 in 10.0 mi Calm Calm - N/A   Clear
7:54 PM 73.0 °F - 68.0 °F 84% 30.04 in 10.0 mi Calm Calm - N/A   Clear
8:54 PM 73.0 °F - 68.0 °F 84% 30.05 in 10.0 mi Calm Calm - N/A   Clear
9:54 PM 71.1 °F - 66.0 °F 84% 30.05 in 10.0 mi Calm Calm - N/A   Clear
10:54 PM 70.0 °F - 66.0 °F 87% 30.04 in 10.0 mi Calm Calm - N/A   Clear
11:54 PM 68.0 °F - 64.9 °F 90% 30.06 in 10.0 mi Calm Calm - N/A   Clear